Location: Unspecified
(49.9820°N, 20.4363°E)
Time: 13:55:43
(UTC+02:00)

ISS - Pass Details

Date: 22 May 2018
Orbit: 402 x 407 km, 51.6° (Epoch: 20 May)

Event Time Altitude Azimuth Distance (km) Brightness Sun altitude
Rises 21:24:26 0° 220° (SW) 2,310 0.0 -7.9°
Reaches altitude 10° 21:26:39 10° 209° (SSW) 1,454 -1.2 -8.2°
Maximum altitude 21:29:32 29° 147° (SSE) 765 -3.0 -8.5°
Drops below altitude 10° 21:32:25 10° 84° (E) 1,459 -1.4 -8.8°
Sets 21:34:39 0° 74° (ENE) 2,321 -0.2 -9.0°
